Carbondale, IL

2:27 AM CST on December 11, 2019 (GMT -0600)
Southern Illinois

Weather History for KMDH - November, 2019

Change the Weather History Date:

Friday, November 15, 2019

  Actual Average Record
Temperature  
Mean Temperature 34 °F -  
Max Temperature 46 °F 54 °F 82 °F (1955)
Min Temperature 21 °F 33 °F 9 °F (1940)
Degree Days  
Heating Degree Days 32    
Moisture  
Dew Point 23 °F    
Average Humidity 79    
Maximum Humidity 93    
Minimum Humidity 42    
Precipitation  
Precipitation 0.00 in - - ()
Sea Level Pressure  
Sea Level Pressure 30.40 in    
Wind  
Wind Speed 1 mph (North)    
Max Wind Speed 8 mph    
Max Gust Speed -    
Visibility 6 miles    
Events Fog    
Averages and records for this station are not official NWS values.
T = Trace of Precipitation, MM = Missing Value Source: NWS Daily Summary

Daily Weather History Graph

Daily Weather History Graph

Search for Another Location

Airport or City:

Astronomy

Nov. 15, 2019 Rise Set
Actual Time 6:36 AM CST 4:45 PM CST
Civil Twilight 6:08 AM CST 5:13 PM CST
Nautical Twilight 5:37 AM CST 5:45 PM CST
Astronomical Twilight 5:06 AM CST 6:16 PM CST
Moon 7:23 PM CST (11/15) 9:31 AM CST (11/15)
Length of Visible Light 11h 04m
Length of Day
10h 08m
Waning Gibbous, 90% of the Moon is Illuminated
Nov 15
Waning Gibbous
Nov 19
Last Quarter
Nov 26
New
Dec 4
First Quarter
Dec 11
Full

Hourly Weather History & Observations

Time (CST) Temp. Windchill Dew Point Humidity Pressure Visibility Wind Dir Wind Speed Gust Speed Precip Events Conditions
12:52 AM 24.1 °F - 21.0 °F 88% 30.40 in 1.2 mi Calm Calm - N/A   Clear
1:04 AM 24.1 °F - 21.0 °F 88% 30.39 in 0.8 mi Calm Calm - N/A   Clear
1:22 AM 23.0 °F - 21.0 °F 92% 30.39 in 0.5 mi Calm Calm - N/A Fog Light Freezing Fog
1:27 AM 23.0 °F - 21.0 °F 92% 30.39 in 1.5 mi Calm Calm - N/A   Partly Cloudy
1:29 AM 23.0 °F - 21.0 °F 92% 30.39 in 3.0 mi Calm Calm - N/A   Partly Cloudy
1:52 AM 23.0 °F - 21.0 °F 92% 30.40 in 4.0 mi Calm Calm - N/A   Partly Cloudy
2:29 AM 21.0 °F - 19.0 °F 92% 30.38 in 2.0 mi Calm Calm - N/A   Clear
2:49 AM 21.2 °F - 19.4 °F 93% 30.39 in 4.0 mi Calm Calm - N/A   Clear
2:52 AM 21.9 °F 17.2 °F 19.9 °F 92% 30.40 in 4.0 mi NNW 3.5 mph - N/A   Clear
3:52 AM 21.9 °F - 19.9 °F 92% 30.40 in 5.0 mi Calm Calm - N/A   Clear
4:52 AM 23.0 °F 17.0 °F 21.0 °F 92% 30.41 in 5.0 mi NNW 4.6 mph - N/A   Clear
5:52 AM 23.0 °F 18.4 °F 21.0 °F 92% 30.43 in 5.0 mi NW 3.5 mph - N/A   Clear
6:48 AM 23.0 °F - 21.2 °F 93% 30.42 in 2.0 mi Calm Calm - N/A   Clear
6:52 AM 23.0 °F - 21.0 °F 92% 30.44 in 2.0 mi Calm Calm - N/A   Clear
7:52 AM 25.0 °F - 23.0 °F 92% 30.45 in 2.0 mi Calm Calm - N/A   Clear
8:25 AM 28.9 °F - 26.1 °F 89% 30.44 in 3.0 mi Calm Calm - N/A   Clear
8:52 AM 30.9 °F - 28.0 °F 89% 30.46 in 4.0 mi Calm Calm - N/A   Clear
9:52 AM 37.0 °F - 28.0 °F 70% 30.45 in 7.0 mi Calm Calm - N/A   Clear
11:52 AM 43.0 °F 38.8 °F 25.0 °F 49% 30.41 in 10.0 mi NNE 6.9 mph - N/A   Clear
12:52 PM 45.0 °F 40.6 °F 24.1 °F 44% 30.39 in 10.0 mi North 8.1 mph - N/A   Clear
1:52 PM 46.0 °F 44.8 °F 25.0 °F 44% 30.38 in 10.0 mi NNE 3.5 mph - N/A   Clear
2:52 PM 46.9 °F - 25.0 °F 42% 30.38 in 10.0 mi NNW 8.1 mph - N/A   Clear
3:52 PM 46.0 °F 43.1 °F 24.1 °F 42% 30.37 in 10.0 mi North 5.8 mph - N/A   Clear
4:52 PM 39.9 °F 36.7 °F 24.1 °F 53% 30.37 in 10.0 mi NNE 4.6 mph - N/A   Clear
5:52 PM 37.0 °F 33.3 °F 24.1 °F 59% 30.37 in 10.0 mi North 4.6 mph - N/A   Clear
6:52 PM 33.1 °F - 24.1 °F 70% 30.37 in 10.0 mi Calm Calm - N/A   Clear
7:52 PM 28.9 °F - 24.1 °F 82% 30.38 in 10.0 mi Calm Calm - N/A   Clear
8:52 PM 27.0 °F - 24.1 °F 89% 30.38 in 10.0 mi Calm Calm - N/A   Clear
9:52 PM 27.0 °F - 24.1 °F 89% 30.38 in 10.0 mi Calm Calm - N/A   Clear
10:52 PM 27.0 °F - 23.0 °F 85% 30.37 in 9.0 mi Calm Calm - N/A   Clear
11:52 PM 26.1 °F - 23.0 °F 88% 30.37 in 8.0 mi Calm Calm - N/A   Clear